[[{"header":{"parameterUnit":"m.s-1","parameterCategory":1,"la1":30.2991,"la2":30.254,"lo1":-89.0895,"lo2":-89.0444,"dy":0.0017,"dx":0.0017,"nx":28,"ny":28,"refTime":"2023-08-02T09:00:00:Z","depth":0,"parameterNumber":2,"parameterNumberName":"U-component_of_WINDS"},"data":[0,0,0,0,0,0,0,0,0,0,0,0,0,0,0,0,0,0,0,0,0,0,0,0,0,0,0,0,0,0,0,0,0,0,0,0,0,0,0,0,0,0,0,0,0,0,0,0,0,0,0,0,0,0,0,0,0,0,0.3269,0.3269,0,0.3291,0.3292,0.3292,0.3302,0.3302,0.3302,0.3302,0.3325,0.3326,0.3326,0,0,0,0,0,0,0,0,0,0,0,0,0,0.3232,0.3232,0.3269,0.3269,0.3269,0.3291,0.3292,0.3292,0.3302,0.3302,0.3302,0.3302,0.3325,0.3325,0.3326,0,0,0,0,0,0,0,0,0,0,0,0,0,0.325,0.3233,0.3268,0.3277,0.3278,0.3291,0.3292,0.3292,0.3302,0.3302,0.3302,0.3302,0.3324,0.3325,0.3326,0.3333,0,0,0.3329,0.333,0,0,0,0,0,0,0,0,0.3249,0.3252,0.3275,0.3276,0.3278,0.3294,0.3287,0.3306,0.3302,0.3293,0.3302,0.3302,0.3315,0.3316,0.3321,0.3334,0.3335,0.3329,0.333,0.333,0.333,0,0,0,0,0,0,0,0.3248,0.3251,0.3278,0.3276,0.3277,0.3279,0.3282,0.3291,0.3304,0.3294,0.3295,0.3297,0.3315,0.332,0.3321,0.3335,0.3329,0.333,0.3331,0.3331,0.3353,0.3353,0,0,0,0,0,0,0.3246,0.325,0.3277,0.3278,0.3263,0.328,0.3283,0.3289,0.3304,0.3306,0.3297,0.3298,0.3318,0.332,0.3322,0.333,0.333,0.3331,0.3332,0.3353,0.3353,0.3353,0,0,0,0,0,0,0.3245,0.3248,0.3276,0.3264,0.3268,0.328,0.3287,0.3289,0.3294,0.3306,0.3309,0.33,0.3318,0.3321,0.333,0.3331,0.3331,0.3332,0.3353,0.3353,0.3353,0.3345,0,0,0,0,0,0,0.3244,0.3248,0.3251,0.3264,0.3269,0.3284,0.3287,0.329,0.3296,0.3296,0.3309,0.3311,0.3318,0.3328,0.3331,0.3332,0.3333,0.3353,0.3353,0.3353,0.3346,0.3345,0.3345,0,0,0,0,0,0.3242,0.3248,0.3251,0.3254,0.3273,0.3284,0.3286,0.3295,0.3296,0.3298,0.3306,0.3311,0.333,0.3329,0.3332,0.3333,0.3353,0.3353,0.3353,0.3346,0.3345,0.3345,0,0,0,0,0,0,0.3234,0.325,0.3253,0.3263,0.3272,0.3286,0.3289,0.3294,0.3302,0.3303,0.3312,0.3315,0.3323,0.3329,0.3328,0.334,0.3342,0.3342,0.3335,0.3335,0.3335,0.3333,0.3334,0,0,0,0,0,0.3233,0.3242,0.3255,0.3262,0.3266,0.3277,0.3282,0.3288,0.3297,0.3301,0.3309,0.3318,0.3326,0.3331,0.3339,0.3346,0.3349,0.3349,0.3348,0.3348,0.3348,0.3352,0.3352,0.3353,0.3353,0.3353,0,0,0.3232,0.3242,0.3246,0.3261,0.3268,0.3276,0.328,0.3288,0.3294,0.3302,0.3311,0.3317,0.3327,0.3335,0.3339,0.3341,0.3348,0.3348,0.3348,0.3348,0.3352,0.3352,0.3352,0.3353,0.3353,0.3353,0,0,0.3234,0.3242,0.3249,0.3256,0.3267,0.3274,0.3275,0.3288,0.3292,0.3301,0.3307,0.3314,0.3327,0.3334,0.3339,0.3341,0.3346,0.3344,0.3342,0.3345,0.3345,0.3345,0.3345,0.3345,0.3344,0.3344,0.3344,0,0.3231,0.3243,0.3252,0.3259,0.3265,0.3273,0.3279,0.3285,0.3298,0.3302,0.3303,0.3319,0.3327,0.3336,0.3336,0.3341,0.3342,0.3342,0.3344,0.3344,0.3344,0.3344,0.3345,0.3344,0.3344,0.3344,0.3344,0,0.3238,0.3246,0.325,0.3262,0.3268,0.3275,0.3284,0.3289,0.3294,0.33,0.3309,0.3318,0.3327,0.333,0.3335,0.3339,0.3339,0.3342,0.3345,0.3344,0.3344,0.3344,0.3343,0.3343,0.3343,0.3344,0,0,0.3236,0.3252,0.3253,0.3259,0.3271,0.3277,0.3283,0.3293,0.3296,0.3304,0.331,0.332,0.3323,0.3329,0.3334,0.3337,0.3337,0.3339,0.334,0.3338,0.3342,0.3339,0.3339,0.334,0.334,0.334,0.3341,0,0.3239,0.3251,0.3259,0.3268,0.3275,0.3282,0.3287,0.3295,0.3301,0.3307,0.3313,0.332,0.3323,0.3327,0.333,0.3336,0.3338,0.3336,0.3344,0.3344,0.3341,0.334,0.3337,0.3338,0.3341,0.3341,0.3341,0,0.3244,0.3252,0.3262,0.3272,0.3275,0.328,0.3288,0.3295,0.3303,0.3307,0.3312,0.3318,0.3324,0.3325,0.3334,0.3333,0.3336,0.334,0.334,0.3341,0.3343,0.334,0.3338,0.3338,0.3341,0.3341,0.3341,0,0.3241,0.3254,0.3261,0.3265,0.3278,0.3281,0.3286,0.3294,0.3299,0.3306,0.3309,0.3316,0.3321,0.3326,0.3333,0.3334,0.334,0.3343,0.3343,0.3343,0.3344,0.3344,0.3342,0.3347,0.3347,0.3347,0.3347,0,0.3243,0.3249,0.3259,0.3264,0.327,0.3278,0.3283,0.3289,0.3296,0.3301,0.3307,0.3312,0.3321,0.3326,0.3332,0.3337,0.3339,0.3342,0.3343,0.3341,0.3341,0.3344,0.3344,0.3347,0.3347,0.3347,0.3347,0,0.324,0.3248,0.3256,0.3267,0.327,0.3273,0.3282,0.3286,0.3292,0.3298,0.33,0.3309,0.3315,0.3323,0.3332,0.3335,0.334,0.3343,0.3338,0.3338,0.3338,0.3338,0.3338,0.3338,0.3343,0.3343,0.3343,0,0.3241,0.3246,0.3256,0.326,0.3265,0.3271,0.3276,0.3283,0.3288,0.3297,0.33,0.3307,0.3313,0.3323,0.3329,0.3336,0.3338,0.3338,0.3339,0.3337,0.3338,0.3337,0.3337,0.3337,0.3337,0.3337,0.3337,0,0.3242,0.3245,0.3251,0.3259,0.3264,0.327,0.3277,0.3279,0.3288,0.3292,0.3299,0.3304,0.3313,0.3319,0.3326,0.3331,0.3335,0.3336,0.3337,0.3335,0.3331,0.3333,0.3336,0.3336,0.3337,0.3337,0.3337,0.3337,0.324,0.3244,0.3252,0.3259,0.3264,0.327,0.3274,0.328,0.3285,0.3293,0.3297,0.3303,0.331,0.3321,0.3325,0.333,0.3331,0.3332,0.3332,0.3332,0.3331,0.3331,0.3331,0.3331,0.3331,0.3331,0.3331,0,0.3241,0.3246,0.3252,0.326,0.3265,0.3269,0.3275,0.3279,0.3285,0.3291,0.3296,0.3303,0.331,0.3317,0.3323,0.3325,0.3327,0.3327,0.3326,0.3327,0.333,0.3329,0.3325,0.3325,0.3325,0.3325,0.3325,0.3325,0.3241,0.3248,0.3251,0.326,0.3265,0.3271,0.3275,0.3279,0.3284,0.3292,0.3297,0.3301,0.3308,0.3314,0.332,0.3322,0.3323,0.3322,0.3324,0.3327,0.3327,0.3328,0.3327,0.3323,0.3323,0.3322,0.3322,0.3322]},{"header":{"parameterUnit":"m.s-1","parameterCategory":1,"la1":30.2991,"la2":30.254,"lo1":-89.0895,"lo2":-89.0444,"dy":0.0017,"dx":0.0017,"nx":28,"ny":28,"refTime":"2023-08-02T09:00:00:Z","depth":0,"parameterNumber":3,"parameterNumberName":"V-component_of_WINDS"},"data":[0,0,0,0,0,0,0,0,0,0,0,0,0,0,0,0,0,0,0,0,0,0,0,0,0,0,0,0,0,0,0,0,0,0,0,0,0,0,0,0,0,0,0,0,0,0,0,0,0,0,0,0,0,0,0,0,0,0,4.8765,4.8765,0,4.8784,4.8784,4.8784,4.8724,4.8722,4.872,4.8719,4.8735,4.8737,4.874,0,0,0,0,0,0,0,0,0,0,0,0,0,4.8673,4.8675,4.8765,4.8765,4.8766,4.8784,4.8784,4.8784,4.8724,4.8722,4.872,4.8718,4.8735,4.8737,4.874,0,0,0,0,0,0,0,0,0,0,0,0,0,4.8705,4.8676,4.8765,4.8738,4.8736,4.8784,4.8784,4.8784,4.8725,4.8722,4.8719,4.8717,4.8734,4.8737,4.874,4.8815,0,0,4.875,4.8751,0,0,0,0,0,0,0,0,4.8703,4.8708,4.8742,4.874,4.8737,4.8749,4.8758,4.8795,4.8725,4.8729,4.8719,4.8715,4.8742,4.8744,4.8754,4.8816,4.8816,4.875,4.8752,4.8754,4.8755,0,0,0,0,0,0,0,4.8701,4.8707,4.8772,4.8742,4.874,4.8724,4.8725,4.8765,4.875,4.8728,4.8724,4.8727,4.874,4.8751,4.8754,4.8817,4.875,4.8753,4.8755,4.8756,4.8938,4.8941,0,0,0,0,0,0,4.8703,4.8706,4.8772,4.8773,4.8713,4.8727,4.8729,4.8748,4.875,4.8748,4.873,4.8724,4.8747,4.875,4.8754,4.884,4.8754,4.8757,4.8758,4.8936,4.8939,4.8942,0,0,0,0,0,0,4.8701,4.8709,4.8771,4.8738,4.8745,4.8732,4.8754,4.875,4.876,4.8751,4.8748,4.8743,4.8745,4.875,4.88,4.884,4.8758,4.8761,4.8932,4.8937,4.8941,4.9013,0,0,0,0,0,0,4.8699,4.8709,4.8738,4.8739,4.8747,4.8818,4.8756,4.8752,4.8766,4.876,4.8763,4.8761,4.8743,4.8795,4.8803,4.8843,4.8764,4.8928,4.8934,4.8939,4.9007,4.9019,4.903,0,0,0,0,0,4.8696,4.8758,4.874,4.8748,4.8783,4.882,4.8824,4.8803,4.877,4.8798,4.8792,4.876,4.8835,4.8801,4.8809,4.885,4.8926,4.8933,4.8939,4.9002,4.9017,4.903,0,0,0,0,0,0,4.8761,4.8757,4.8738,4.8802,4.8812,4.881,4.8845,4.882,4.8839,4.8832,4.8805,4.8806,4.8861,4.8861,4.8823,4.8922,4.8874,4.8883,4.8919,4.8934,4.8945,4.8943,4.8766,0,0,0,0,0,4.8783,4.8814,4.8809,4.8866,4.8872,4.8858,4.8874,4.8857,4.8865,4.8869,4.8866,4.8875,4.89,4.8917,4.894,4.9007,4.9006,4.904,4.9051,4.9061,4.9068,4.9101,4.9116,4.8964,4.8964,4.8964,0,0,4.8828,4.883,4.8851,4.8879,4.8885,4.8917,4.8862,4.8898,4.8921,4.8874,4.8921,4.892,4.8928,4.8987,4.9012,4.8988,4.911,4.9069,4.9077,4.9078,4.911,4.9124,4.9137,4.8968,4.8967,4.8967,0,0,4.8926,4.8932,4.8979,4.8986,4.8996,4.8986,4.8997,4.8999,4.8996,4.9044,4.9009,4.9035,4.9079,4.9086,4.9095,4.9196,4.9167,4.9204,4.9263,4.9296,4.9308,4.9319,4.9353,4.9365,4.9211,4.9212,4.9212,0,4.8981,4.9029,4.9007,4.9045,4.9058,4.9018,4.9064,4.9072,4.9088,4.9097,4.907,4.9124,4.9127,4.9186,4.921,4.922,4.9231,4.9203,4.9309,4.9319,4.9328,4.936,4.9373,4.9216,4.9215,4.9215,4.9215,0,4.9094,4.9128,4.9165,4.9182,4.9198,4.9241,4.9224,4.9244,4.9226,4.9218,4.9266,4.9268,4.929,4.9303,4.9285,4.9359,4.9343,4.9314,4.9265,4.9347,4.9377,4.9389,4.9222,4.9221,4.9219,4.9218,0,0,4.9233,4.9238,4.9251,4.9258,4.9265,4.929,4.933,4.9352,4.9368,4.9381,4.9413,4.9451,4.9423,4.9433,4.9416,4.9446,4.9523,4.9412,4.9411,4.9431,4.9602,4.9623,4.9638,4.9505,4.9507,4.9509,4.9601,0,4.9328,4.9397,4.9379,4.9447,4.9477,4.9439,4.9474,4.9482,4.9476,4.9499,4.9492,4.9519,4.9481,4.9487,4.9515,4.9508,4.9557,4.9501,4.9532,4.9534,4.953,4.9654,4.9677,4.9763,4.9612,4.9614,4.9616,0,4.9448,4.9466,4.9537,4.9539,4.955,4.9582,4.96,4.9623,4.9631,4.9624,4.9636,4.9613,4.9651,4.9604,4.9655,4.9618,4.9629,4.9628,4.9631,4.9631,4.9578,4.9656,4.979,4.9803,4.9634,4.9633,4.9631,0,4.954,4.9581,4.9629,4.9636,4.9639,4.9662,4.9664,4.9669,4.9683,4.9699,4.9707,4.9727,4.9737,4.9753,4.9735,4.9703,4.9788,4.974,4.9782,4.9783,4.98,4.9799,4.9937,4.9812,4.9812,4.9811,4.9811,0,4.9646,4.9691,4.967,4.9699,4.9747,4.9725,4.9774,4.9772,4.9776,4.9803,4.9773,4.9799,4.9775,4.9798,4.9785,4.9828,4.9834,4.9828,4.9824,4.983,4.983,4.9836,4.9828,4.9815,4.9814,4.9813,4.9813,0,4.9756,4.9744,4.9793,4.9792,4.9793,4.9829,4.9827,4.9854,4.9846,4.988,4.9887,4.9875,4.9901,4.9885,4.9912,4.9903,4.9959,4.9947,4.9956,4.9952,4.9995,4.999,5.0139,5.0156,5.0022,5.0024,5.0025,0,4.9824,4.9857,4.986,4.9877,4.9881,4.9908,4.9922,4.9901,4.9917,4.9928,4.9952,4.9976,4.9993,5.0037,5.0029,5.0049,5.0036,5.0087,5.0039,5.0044,5.0035,5.0032,5.0034,5.0096,5.0098,5.0099,5.01,0,4.9945,4.9937,4.9959,4.9979,4.9997,5.0011,5.0023,5.0037,5.0017,5.0036,5.0062,5.0076,5.0103,5.0126,5.0143,5.0144,5.0118,5.0116,5.0126,5.0132,5.0135,5.0132,4.998,5.0112,5.0111,5.011,5.0109,5.0109,5.0035,5.0062,5.0068,5.0093,5.01,5.0111,5.0135,5.0131,5.0153,5.0173,5.016,5.0191,5.0196,5.0216,5.0221,5.0244,5.0223,5.0239,5.0242,5.0246,5.0251,5.0133,5.0247,5.0246,5.0246,5.0246,5.0246,0,5.0152,5.0155,5.0178,5.0195,5.0214,5.019,5.0201,5.0219,5.0246,5.0254,5.0272,5.0302,5.0324,5.0319,5.0338,5.0358,5.0346,5.0363,5.0361,5.0361,5.0269,5.0257,5.0372,5.0372,5.0372,5.0372,5.0372,5.0372,5.0216,5.026,5.0253,5.03,5.0302,5.0332,5.034,5.035,5.0356,5.0391,5.0409,5.0406,5.0408,5.0428,5.0447,5.0444,5.0452,5.0473,5.0467,5.038,5.0368,5.0356,5.0344,5.0476,5.0476,5.0556,5.0557,5.0557]}]]